Theta_e
359 359 359 359 359 359 363 360 358 362 365 360 359 358 353 354 348 344 343 349 344 349 351 347 359 367 364 367 365 365 369 366 367 367 371 370 374 361 351 349 347 347 347 349 350 352 354 356 358 360 361 360 360 361 361 361 360 358 355 352 350 348 344 339 336 335 336 337 336 335 335 335 336 336
363 361 360 360 358 361 360 358 358 363 364 360 359 359 360 359 352 350 345 346 350 348 351 352 352 362 363 358 360 360 365 363 367 366 367 366 365 352 349 350 349 348 347 347 347 349 351 353 354 353 353 352 353 355 357 358 359 358 357 355 352 349 345 340 336 335 336 337 336 335 335 335 335 334
363 363 360 363 360 363 360 360 357 361 362 360 359 360 363 360 359 356 353 346 353 353 350 353 356 356 360 358 358 357 361 363 364 366 369 370 361 352 364 355 351 349 347 345 345 345 346 347 347 347 347 349 351 353 356 357 357 357 356 356 354 350 345 341 337 335 335 336 336 335 334 334 334 334
364 363 362 363 363 364 363 362 359 359 363 362 358 359 361 362 362 361 355 351 350 358 353 354 357 357 359 360 359 359 360 361 359 371 370 374 364 369 366 358 354 351 347 345 344 342 342 341 343 345 347 348 350 353 355 354 354 355 355 354 352 348 344 339 337 335 335 335 335 334 334 333 333 333
366 366 364 364 364 366 363 362 360 356 356 360 360 361 360 355 359 359 356 351 351 356 363 357 355 358 361 356 362 359 358 360 363 362 368 372 368 365 364 365 356 353 348 345 343 342 341 340 340 343 346 347 349 351 353 351 351 351 349 348 344 342 341 338 337 336 335 335 335 334 333 332 332 332
366 366 365 364 364 365 364 362 358 357 355 356 355 356 356 355 356 361 356 353 353 352 356 358 360 357 361 356 362 360 359 359 363 361 363 363 363 362 364 364 361 355 349 344 341 341 340 339 340 341 343 345 346 347 346 344 343 342 342 338 336 337 336 336 336 336 335 335 335 334 333 332 331 331
367 365 365 363 364 362 361 362 360 359 360 359 358 358 359 359 357 359 362 357 353 353 354 359 356 357 360 359 359 362 361 365 366 368 365 359 358 361 362 362 359 354 350 346 343 341 340 339 339 338 339 341 341 341 340 336 334 334 332 330 333 334 334 334 335 336 334 335 335 334 333 332 331 331
366 364 364 363 363 364 364 364 364 363 362 362 362 362 363 363 360 361 362 363 359 357 354 359 359 359 359 360 361 362 364 363 364 363 364 364 363 362 361 362 362 356 350 347 343 341 340 339 338 337 337 336 334 333 332 331 331 331 331 330 330 330 330 329 330 333 332 332 333 333 332 331 330 329
367 366 364 363 364 365 364 364 362 363 364 365 363 361 361 362 361 362 363 363 363 360 357 357 362 365 364 364 365 366 362 362 364 367 368 366 365 367 363 361 360 353 346 344 342 341 341 341 339 339 338 337 336 334 333 331 331 330 329 328 328 328 328 327 326 327 328 328 328 327 328 327 328 328
366 365 366 366 366 364 362 362 363 366 366 366 363 363 364 364 364 365 364 365 364 362 360 361 359 364 360 362 364 367 366 360 359 362 364 366 370 370 364 361 360 360 360 361 359 350 349 347 343 342 341 338 335 335 334 333 331 329 327 324 324 325 326 326 326 325 324 325 326 326 325 326 325 326
365 365 365 366 366 366 365 363 363 364 365 364 365 366 367 366 365 363 363 363 362 361 360 360 361 360 363 364 360 365 369 366 363 361 359 359 363 368 370 367 364 362 361 359 352 353 352 348 350 345 337 335 334 334 334 333 332 331 328 325 324 324 323 323 323 324 323 323 323 322 321 323 325 326
363 364 364 363 364 365 366 365 365 365 364 365 364 365 365 366 365 362 361 361 360 359 357 356 355 358 360 363 365 366 368 365 365 366 360 356 358 361 366 369 366 368 368 364 356 352 350 350 348 337 337 338 338 338 338 339 339 338 334 329 330 329 326 324 323 322 321 320 319 319 318 317 321 324
364 364 362 361 361 366 367 368 365 364 365 364 363 366 368 367 365 364 362 360 360 359 358 357 360 359 360 361 362 359 360 358 356 360 361 359 360 362 362 366 370 370 364 364 362 361 363 361 363 364 367 370 361 357 346 349 347 340 333 331 331 330 328 325 323 322 321 320 319 318 317 317 318 320
361 361 361 360 364 367 366 365 361 353 352 354 361 364 366 366 365 363 361 360 359 359 357 355 354 352 352 352 355 354 356 359 364 361 363 360 359 360 361 363 368 369 363 359 362 364 365 361 362 365 363 362 366 364 365 362 353 345 335 332 331 330 329 326 325 323 321 320 319 318 317 317 318 318
360 360 361 362 363 367 366 366 358 352 349 349 348 348 354 360 365 362 359 359 360 357 356 355 355 352 354 356 356 355 353 355 358 357 360 359 359 357 355 352 361 376 367 364 362 363 368 369 365 365 363 362 362 361 362 347 341 336 334 332 331 330 329 328 327 325 322 320 319 318 317 317 317 317
361 361 361 360 359 361 363 363 364 366 358 348 346 345 345 346 348 352 362 362 360 361 357 356 356 356 355 356 358 354 352 356 357 360 361 361 359 357 355 355 354 365 373 365 361 359 367 368 365 364 362 362 362 357 349 340 337 335 333 332 331 331 330 329 329 328 326 323 321 321 320 319 319 318
362 362 362 361 360 359 361 363 363 366 366 364 353 348 347 348 346 338 337 343 360 361 360 359 358 358 359 358 360 360 360 364 360 360 358 359 361 361 359 358 356 363 371 367 362 358 363 365 362 360 361 362 362 360 348 343 339 336 333 332 331 330 330 329 328 327 325 324 322 320 319 318 318 318
360 361 361 361 361 362 363 365 363 363 363 364 365 366 366 365 363 356 340 336 336 348 356 358 357 361 365 362 364 366 367 363 359 358 356 359 357 358 359 364 364 367 369 364 361 358 360 362 358 358 361 361 363 367 353 340 336 334 332 331 329 328 327 327 327 326 325 324 322 319 317 316 316 316
360 361 359 360 360 361 362 363 362 361 361 362 361 362 361 361 362 363 361 360 360 358 355 357 359 361 362 364 365 366 367 367 365 363 362 361 361 361 364 364 365 366 370 369 365 354 357 361 358 358 361 360 362 363 348 341 338 335 332 330 330 328 326 326 326 325 324 323 321 319 317 316 314 314
359 359 359 360 360 361 362 357 346 350 360 359 359 360 361 361 361 361 364 347 349 359 359 360 359 358 357 345 362 363 359 360 362 363 364 365 364 361 358 356 356 355 361 369 363 357 357 362 356 357 360 360 360 363 364 347 340 337 333 331 330 327 324 323 323 323 323 322 321 319 316 313 312 312
356 355 356 357 356 357 360 336 325 330 345 357 357 357 357 358 357 357 359 344 332 331 329 328 329 329 329 328 327 325 325 340 349 354 353 353 354 353 351 352 353 355 359 361 364 358 354 360 360 358 359 361 360 359 361 364 344 336 335 332 329 325 323 321 320 320 321 321 320 320 318 313 312 313
360 359 353 355 360 358 356 325 322 326 345 356 357 356 355 355 355 357 358 357 354 329 323 323 324 325 326 326 325 325 325 325 335 350 348 351 351 349 350 348 352 355 358 359 363 358 356 360 361 358 359 360 360 360 363 364 360 342 335 329 327 325 323 322 320 320 320 320 319 318 316 313 312 324
359 360 357 354 351 350 333 316 319 323 343 357 357 357 355 354 355 356 358 356 355 358 359 361 365 361 345 353 357 357 338 333 341 348 351 353 351 350 351 352 353 351 354 360 367 357 356 357 358 358 353 351 356 361 362 362 363 364 364 364 368 332 327 325 322 319 318 318 318 317 314 312 314 337
356 356 358 345 323 320 319 316 314 316 317 340 356 357 356 354 354 359 357 358 356 359 358 359 360 360 362 361 362 363 362 361 360 355 356 356 356 355 354 355 354 350 352 362 364 357 355 357 354 359 354 349 346 354 361 360 362 363 364 364 360 344 334 328 324 318 316 316 315 315 314 311 315 340
347 348 348 351 327 318 314 312 309 308 313 318 338 353 357 357 348 344 354 356 355 357 357 357 357 358 359 360 360 359 360 359 360 360 361 361 360 358 356 354 353 353 356 362 355 361 354 355 353 354 353 354 352 352 355 357 360 359 362 362 362 363 365 364 355 361 318 312 312 311 311 312 311 328
340 341 340 343 332 316 312 308 306 305 309 313 329 344 320 316 320 340 347 352 355 355 355 354 354 355 355 355 356 356 357 357 358 360 360 360 361 362 361 358 354 351 354 375 342 361 355 353 353 351 352 351 351 352 350 353 356 359 362 364 363 364 364 362 360 361 363 361 351 323 325 311 313 313
336 339 339 340 330 313 307 305 305 307 307 318 336 319 313 314 316 329 346 349 350 351 352 352 352 352 353 353 353 355 356 357 360 359 360 360 360 360 360 360 359 358 359 361 361 360 358 355 358 353 349 351 349 349 350 349 352 359 359 360 363 363 364 361 358 358 360 359 361 324 314 312 312 313
335 336 338 333 311 307 304 307 309 310 316 332 313 310 313 317 324 344 348 347 349 348 347 348 349 351 352 353 353 353 356 355 358 358 358 359 360 359 359 361 361 361 361 360 360 360 360 357 356 357 355 352 348 346 345 351 353 354 354 358 360 361 362 361 359 357 357 360 359 355 351 344 333 324
332 323 312 311 313 315 316 318 323 329 330 321 319 318 319 335 348 349 347 346 346 345 345 345 347 348 350 350 351 354 356 356 356 356 357 358 359 359 360 360 361 361 359 358 360 360 360 357 356 357 357 354 350 350 349 349 352 352 353 353 353 357 359 361 359 358 360 360 358 357 356 355 353 340
320 318 317 318 319 323 326 336 336 337 335 325 325 326 334 342 343 341 341 342 343 343 343 344 344 346 348 349 352 353 353 352 351 352 352 352 353 354 354 354 355 359 359 360 359 360 360 359 359 358 355 354 353 351 352 351 350 353 354 353 355 356 358 359 359 360 357 357 358 358 359 358 356 352
329 327 326 324 319 322 321 326 329 329 330 334 334 335 333 336 337 335 336 334 332 332 333 336 339 342 345 348 350 349 350 349 350 352 350 349 349 350 350 350 350 351 355 359 358 359 359 359 359 359 354 353 353 354 354 353 351 351 352 355 355 350 355 359 359 359 360 360 361 359 361 358 355 348
327 327 326 323 326 327 328 328 329 328 330 329 328 328 327 331 334 332 332 331 329 329 331 333 334 335 337 339 342 344 345 347 348 352 350 349 349 349 350 348 347 349 350 354 356 359 361 362 360 360 359 357 353 355 356 355 352 352 352 353 354 355 356 356 357 359 362 362 359 358 359 358 356 357
326 326 324 322 322 322 321 322 322 321 322 324 324 324 324 327 327 326 326 323 322 324 327 327 327 328 332 335 338 337 337 339 342 346 347 350 350 350 350 346 346 346 346 348 352 356 359 360 362 361 360 361 360 357 354 350 352 354 353 354 354 354 356 357 358 359 364 361 359 358 358 361 360 358
323 322 320 318 318 318 318 318 318 317 318 319 319 322 320 322 322 321 322 320 319 321 323 324 324 326 328 330 330 331 333 335 336 337 333 338 342 343 344 344 345 348 349 349 350 352 355 358 358 359 361 360 361 361 358 353 351 353 353 354 354 353 355 358 358 361 362 359 358 355 356 359 361 361
319 318 317 316 317 317 317 316 316 316 316 316 317 318 319 319 318 317 317 316 317 319 320 321 323 325 326 326 327 327 326 324 326 329 330 331 330 330 332 337 341 344 346 347 349 352 353 353 353 351 352 354 354 358 352 361 354 352 353 355 356 354 355 357 356 359 360 359 358 355 355 357 360 362
317 317 316 315 315 315 315 315 315 315 315 315 316 316 315 315 316 315 314 313 316 317 317 317 319 322 322 324 323 321 321 320 323 324 325 325 325 325 328 330 331 332 335 341 346 350 350 351 351 347 344 344 343 343 348 348 351 357 351 351 353 355 356 358 358 358 356 356 357 355 352 352 356 361
316 315 315 315 315 314 314 314 314 315 314 315 314 314 313 313 314 314 315 315 315 315 315 316 318 319 320 321 319 317 319 318 319 320 320 321 323 324 323 323 324 325 326 329 333 337 344 345 348 347 344 341 339 338 343 356 343 341 358 352 353 354 356 356 356 354 355 356 357 356 354 354 354 358
315 314 314 314 314 314 314 314 314 314 314 315 314 314 313 313 314 315 315 315 314 314 314 315 316 317 317 318 316 315 316 316 316 317 317 318 318 319 319 320 320 322 323 325 329 332 338 344 346 348 347 341 338 338 339 346 351 348 335 351 351 352 353 352 351 351 353 356 355 357 358 355 356 358
314 313 313 313 313 313 313 313 313 313 313 314 314 313 314 313 313 313 313 313 313 313 313 313 314 314 315 316 315 314 313 313 313 313 313 314 314 315 315 316 317 319 321 322 327 330 333 336 339 343 343 339 338 340 343 343 342 349 344 325 349 354 352 352 350 351 352 352 354 357 358 362 355 341
312 313 312 312 312 312 312 313 313 312 312 312 312 313 313 312 312 312 312 312 312 312 312 312 313 312 314 313 313 313 312 312 311 312 312 312 313 313 314 314 314 315 317 320 321 324 327 328 331 332 329 331 335 340 344 346 348 349 354 348 322 343 355 353 350 350 350 352 355 353 352 354 353 357
311 311 312 312 312 311 311 311 311 312 312 312 313 312 313 312 311 311 311 310 311 311 310 311 312 312 311 311 312 311 311 311 311 311 312 311 311 311 311 311 313 316 316 317 319 321 323 326 329 323 330 334 338 342 343 339 338 341 345 350 328 319 327 336 357 355 351 354 353 350 349 349 350 352
310 310 310 310 311 311 311 311 311 310 311 311 311 311 311 311 311 310 310 311 311 311 310 310 310 310 310 310 310 310 309 310 309 309 310 309 310 311 312 313 313 314 314 314 316 318 322 326 328 329 331 332 333 333 331 332 334 337 342 345 349 331 319 319 323 332 359 355 351 348 348 350 352 350
310 309 309 309 310 310 310 310 310 310 309 310 310 310 310 310 311 310 310 310 311 310 309 309 309 309 310 310 310 310 309 308 308 308 308 309 309 310 311 312 313 313 314 315 317 319 321 324 325 325 326 326 326 328 327 329 332 334 336 339 342 346 353 327 320 320 322 325 329 342 352 350 348 345
308 308 308 309 309 309 309 309 309 309 309 309 309 309 309 308 308 309 309 309 309 308 307 307 307 307 308 308 308 308 307 307 306 306 306 308 309 310 310 311 311 313 314 314 315 316 318 319 321 321 321 321 324 325 325 327 328 329 331 334 338 340 340 344 349 334 325 324 321 319 322 326 332 334
307 307 307 308 308 309 308 308 308 308 308 308 308 308 308 307 307 308 308 308 308 307 306 305 305 306 306 306 305 304 304 304 304 306 306 307 308 308 309 310 310 311 311 312 312 313 316 317 318 319 319 320 322 322 323 323 324 326 327 329 331 334 338 340 340 341 344 347 335 323 321 321 322 322
Wind_Speed
3 3 3 3 3 2 2 3 2 2 2 2 2 2 3 3 4 5 5 4 5 3 5 5 2 5 7 5 5 5 4 4 5 5 4 4 4 4 7 8 9 9 9 10 11 11 11 11 10 10 11 12 11 11 11 11 9 8 8 9 9 9 8 6 5 5 5 3 2 3 4 5 6 7
3 3 3 2 3 2 3 3 2 2 2 2 2 2 1 1 3 3 5 5 4 4 4 4 5 5 7 6 5 4 4 3 5 5 5 6 6 7 9 8 9 9 9 10 10 11 11 11 10 11 11 12 12 10 11 11 10 9 9 9 10 10 9 7 6 6 6 4 3 3 3 4 5 5
3 4 4 3 4 3 4 4 4 2 3 2 2 2 1 2 2 3 3 6 2 3 6 6 6 7 6 7 6 5 5 1 3 6 6 6 6 8 7 7 7 8 9 9 10 11 11 11 11 11 11 11 12 11 9 10 10 9 9 9 9 9 8 8 7 7 6 6 4 3 3 3 4 5
3 4 5 4 4 3 3 4 3 3 3 3 3 2 2 2 2 2 4 5 7 5 6 7 7 7 7 6 6 7 6 3 5 5 6 6 6 6 6 4 4 8 9 9 10 11 12 12 11 11 11 12 12 10 9 12 11 9 8 8 9 9 9 9 8 8 7 6 5 4 3 3 3 4
4 4 5 5 5 4 4 4 4 4 4 3 3 3 3 4 2 3 4 6 8 7 4 5 6 6 6 7 6 7 7 7 6 7 6 7 7 7 7 8 6 5 7 9 9 10 11 12 11 11 11 11 12 12 11 12 12 11 9 8 8 9 9 10 9 9 8 7 6 5 4 3 2 4
4 4 5 5 5 4 4 4 5 4 4 4 4 4 4 4 4 2 4 5 7 9 6 5 5 6 4 7 6 7 8 8 8 9 8 8 8 7 7 7 6 2 7 8 9 10 11 11 11 11 10 11 12 13 13 13 13 12 10 8 8 9 10 10 10 9 9 8 7 6 5 4 3 3
4 5 5 5 5 3 4 4 5 5 5 5 5 5 4 5 5 4 4 5 6 8 8 6 7 5 5 6 7 7 7 7 6 7 8 8 8 7 8 7 6 1 6 9 10 10 11 11 11 10 9 9 10 12 13 13 12 12 11 8 7 8 10 10 10 10 9 9 8 7 6 5 4 3
4 5 5 5 5 4 5 5 5 5 5 4 4 5 4 4 5 5 4 4 5 6 8 6 6 6 6 6 6 6 6 7 6 7 7 7 7 8 7 7 6 4 6 10 10 11 11 11 10 9 8 8 9 10 11 12 12 12 11 9 7 8 9 10 10 10 10 9 9 8 7 6 5 5
5 5 6 6 5 5 5 5 5 4 5 4 4 5 4 5 5 4 4 5 5 6 7 7 6 5 5 6 6 5 6 6 6 6 6 7 7 6 6 6 6 6 10 11 11 10 10 10 9 9 9 9 10 10 11 11 12 12 11 10 8 7 8 9 10 10 10 10 10 9 8 7 6 6
5 5 6 6 5 5 6 6 6 5 6 5 5 5 5 5 4 4 5 5 5 6 7 7 7 5 6 6 6 5 4 6 7 7 6 6 6 5 6 7 6 6 5 6 6 5 7 5 6 9 8 10 11 11 11 11 11 12 12 11 9 8 7 8 9 10 10 10 10 10 9 8 8 8
6 6 6 6 6 6 6 6 6 6 6 5 6 6 6 5 5 6 6 5 6 6 7 7 6 6 5 4 7 4 3 5 6 6 6 8 6 5 5 6 7 7 7 7 9 9 8 10 8 8 9 10 11 11 10 11 11 11 11 11 9 8 7 8 9 10 10 11 11 11 10 9 8 9
6 6 6 6 6 6 6 6 6 6 6 5 6 5 5 5 6 6 6 6 6 7 7 7 7 6 6 6 6 5 4 5 4 4 4 6 8 8 7 6 7 7 6 7 7 4 7 8 9 11 11 11 11 11 10 11 11 11 11 10 9 8 7 8 9 9 10 11 11 11 11 10 9 8
6 6 7 7 7 6 7 7 7 7 6 6 7 6 6 6 6 7 7 6 6 7 7 7 7 7 6 6 6 6 4 5 7 5 5 6 7 7 7 7 6 5 7 6 6 7 8 9 8 8 7 5 6 7 9 8 10 9 9 9 10 8 7 8 9 9 10 10 11 11 11 11 10 9
8 8 7 7 7 7 8 8 9 10 11 10 9 7 7 7 7 7 8 8 7 7 8 8 8 8 8 8 7 8 7 7 6 6 5 6 7 7 8 7 4 3 7 9 8 8 7 9 9 7 8 7 6 6 6 6 7 8 10 10 11 11 9 8 8 9 10 10 11 12 12 12 11 10
8 8 7 7 7 7 9 10 12 12 12 11 12 12 12 10 9 9 9 8 8 8 9 8 8 9 9 9 8 8 9 8 7 6 6 6 6 7 7 9 7 2 3 8 10 9 7 7 8 8 8 8 7 7 6 5 9 10 9 10 10 11 10 8 8 9 9 10 11 11 12 12 12 11
7 7 7 7 6 6 7 7 7 8 11 12 12 12 12 12 12 12 10 9 8 8 9 9 9 9 9 9 8 8 9 8 8 7 7 7 7 7 7 7 8 5 4 6 9 11 6 6 8 9 8 7 7 8 7 9 9 10 10 9 10 10 11 9 8 8 9 10 10 11 11 12 12 12
6 6 6 6 6 6 6 6 7 7 7 8 11 12 11 11 12 13 14 13 11 9 9 10 10 9 9 10 8 8 9 7 8 8 8 7 7 7 7 7 8 7 5 7 8 10 7 7 9 9 8 7 8 8 7 6 7 10 10 10 10 10 10 10 9 9 9 10 10 11 11 11 12 11
6 6 6 6 6 6 6 5 6 6 7 8 7 7 6 7 9 12 14 14 15 13 10 10 10 10 8 9 9 9 8 8 9 8 9 9 9 8 9 9 9 9 6 8 9 10 8 8 9 10 9 8 8 7 7 5 8 10 10 10 8 8 8 9 9 9 9 9 10 11 12 11 11 11
4 5 5 6 6 6 5 4 4 6 7 7 7 7 8 8 8 8 8 7 7 7 8 9 10 11 10 10 11 10 8 8 8 8 10 10 10 10 10 10 10 10 9 9 6 9 8 7 9 10 9 8 8 8 8 8 9 10 10 9 7 6 7 8 8 9 8 9 10 11 11 12 12 11
2 3 3 4 5 4 5 4 4 4 5 7 7 8 8 8 8 8 7 8 8 9 9 8 9 9 10 10 11 11 10 9 8 8 8 8 8 9 9 9 9 10 7 7 7 9 10 7 9 11 9 9 9 8 8 6 9 9 9 8 7 6 6 7 7 8 8 8 9 10 11 11 11 11
1 1 0 1 3 3 1 6 4 2 3 6 7 7 8 8 8 8 6 8 12 13 13 14 15 16 16 17 16 16 14 9 7 7 8 10 9 10 11 11 11 10 8 7 7 9 12 8 7 10 9 9 9 10 9 8 6 8 7 8 8 7 7 7 7 7 7 8 9 9 10 10 11 10
0 2 2 2 2 2 4 5 4 2 3 4 5 6 7 7 8 7 6 5 4 11 12 13 14 15 15 15 15 15 15 13 6 7 9 11 11 12 12 12 11 11 10 10 9 9 11 9 8 11 12 10 9 9 8 6 5 6 9 11 10 9 9 8 7 7 7 8 8 9 10 10 10 7
2 0 3 7 7 7 6 7 8 8 6 4 4 4 6 7 8 7 6 5 6 7 7 7 6 7 9 9 7 8 13 14 11 10 10 10 11 12 12 12 12 14 11 9 5 7 10 10 9 9 11 12 10 8 8 6 6 6 6 5 6 11 10 10 9 8 8 9 9 10 11 12 11 6
3 3 1 8 10 8 8 8 7 7 8 7 7 6 7 8 9 7 7 6 7 7 8 9 8 10 10 10 10 10 9 8 9 10 10 10 10 11 12 12 12 13 11 7 4 8 12 12 13 10 11 12 13 9 9 11 10 8 7 6 7 6 9 8 8 12 10 10 10 11 12 14 13 7
4 3 4 3 9 12 12 11 10 8 7 5 7 8 8 7 10 10 9 10 10 9 10 11 11 10 9 9 9 9 8 8 8 8 9 9 10 10 12 13 13 13 11 9 2 8 11 12 13 11 11 10 12 14 12 11 10 11 9 8 8 6 5 6 5 4 9 11 11 12 12 14 16 11
4 5 5 5 10 13 12 11 10 8 6 6 4 6 9 12 11 7 7 8 8 8 8 9 10 10 10 10 10 10 10 9 9 9 9 9 10 10 10 11 12 12 12 6 7 7 12 13 12 11 12 12 12 11 12 12 12 12 10 9 9 7 6 7 6 6 5 5 5 9 11 16 16 18
5 5 6 7 12 12 11 10 10 8 8 6 3 7 10 9 7 6 6 6 7 8 8 9 9 9 9 9 9 8 9 8 8 9 9 10 11 11 12 13 13 13 12 12 12 12 11 12 10 12 14 13 14 13 12 13 12 10 10 10 10 9 7 6 7 6 6 5 6 11 11 14 17 17
6 8 9 9 13 12 12 11 9 8 6 6 9 10 9 8 6 5 6 7 7 8 8 9 9 9 8 9 9 9 8 9 9 10 11 11 12 11 11 12 12 12 13 13 12 12 11 11 10 9 11 14 14 14 14 12 13 12 13 11 10 10 10 9 8 7 7 7 7 6 6 6 8 8
5 6 9 9 12 11 12 11 8 6 13 15 14 12 12 8 5 6 6 7 7 7 8 8 8 8 8 8 8 8 9 9 9 9 9 10 10 11 11 11 10 9 9 10 10 10 10 10 10 10 10 11 13 13 12 14 12 13 12 13 12 10 10 11 11 10 8 7 7 7 7 6 5 8
6 10 10 11 12 11 11 8 8 8 9 10 12 12 13 8 9 9 8 8 7 7 8 8 9 8 8 8 9 9 9 8 8 8 9 9 9 9 10 11 10 10 10 10 10 9 9 9 9 9 11 12 12 14 13 12 13 13 11 11 12 12 10 10 9 9 9 8 8 7 7 6 7 6
8 9 10 8 8 8 7 7 6 7 8 8 8 8 8 7 7 8 7 8 8 7 8 8 9 9 9 8 8 8 8 8 8 8 9 10 10 9 9 10 12 10 9 9 9 8 8 8 9 10 11 12 12 12 12 12 13 12 12 11 11 13 11 11 11 12 11 10 8 8 6 6 6 8
7 7 7 7 8 8 7 7 6 7 7 7 7 7 7 7 7 9 11 9 7 8 8 8 8 8 9 9 9 8 8 8 8 8 9 9 10 10 10 11 11 10 10 9 9 9 9 9 10 10 10 10 12 12 11 12 13 13 13 11 11 13 12 12 12 12 11 11 10 9 7 7 7 7
4 5 6 7 7 7 7 7 7 7 7 7 7 7 7 6 6 7 7 8 9 9 9 8 8 8 9 9 9 9 9 8 9 9 9 9 10 9 9 11 11 11 11 11 9 8 8 9 10 11 12 12 12 12 12 13 13 11 12 13 12 13 11 11 11 11 10 10 11 11 9 8 8 8
5 5 5 6 6 6 6 6 6 7 7 7 7 7 8 7 7 8 7 7 8 8 8 8 8 8 8 8 8 9 9 9 9 10 11 11 11 10 10 9 10 10 10 11 10 9 9 8 9 9 10 11 11 12 12 12 13 12 12 11 11 13 12 11 10 11 10 11 11 13 12 9 7 8
6 6 6 6 6 6 5 6 6 6 6 6 6 7 7 6 7 8 7 8 9 8 8 8 8 8 8 8 8 9 9 9 9 9 9 9 9 9 10 10 10 10 10 11 11 9 9 9 9 9 9 9 11 11 12 13 11 12 10 10 11 11 11 10 10 10 9 10 10 11 13 12 9 7
6 5 5 5 6 5 5 5 5 5 5 5 6 6 7 7 7 8 8 9 8 8 8 8 8 8 8 8 8 8 8 9 9 9 9 8 9 9 9 8 9 10 11 12 12 11 10 10 10 9 10 10 9 12 10 14 17 9 10 11 10 9 10 10 9 9 9 10 10 11 13 13 11 8
5 5 5 5 5 5 5 5 5 5 5 5 5 6 6 7 7 7 9 9 8 8 8 8 8 8 8 8 9 9 9 9 9 9 8 8 8 8 9 9 9 9 10 10 11 12 12 12 10 10 9 10 10 10 12 6 12 17 9 10 11 10 10 10 11 11 10 10 10 10 11 12 13 10
5 4 5 4 5 5 5 5 5 5 5 5 5 5 6 6 6 7 8 8 8 8 9 8 8 8 8 8 9 10 10 9 9 8 9 9 9 9 9 10 10 10 10 11 10 10 11 11 11 9 8 10 11 11 11 8 7 6 12 11 11 12 11 11 12 12 12 11 11 11 10 12 13 12
5 5 5 5 5 5 5 5 6 6 6 6 6 6 6 7 7 8 8 8 8 8 8 8 8 8 8 8 9 9 10 10 10 10 10 9 9 10 10 10 11 10 11 12 10 10 9 10 10 10 10 10 11 12 12 13 15 11 8 15 11 12 12 12 13 13 13 13 12 11 11 11 14 14
5 5 5 6 6 6 6 6 6 6 6 7 7 7 8 8 8 8 8 8 8 9 9 8 9 8 8 8 9 9 9 10 10 10 11 11 11 11 10 10 10 11 11 11 11 10 9 9 8 9 11 12 14 14 14 14 15 14 13 12 20 16 12 11 11 11 12 11 11 12 12 10 11 9
6 6 5 5 6 6 6 7 7 7 7 7 7 7 7 7 8 7 8 8 8 9 9 9 9 9 8 9 9 9 9 10 10 9 11 11 11 11 12 13 10 9 10 12 11 11 10 10 13 17 17 13 13 13 12 12 13 12 12 11 9 19 21 17 13 12 14 11 10 11 13 13 11 10
5 5 5 5 6 6 7 7 7 8 8 7 7 7 7 7 7 7 8 7 8 8 9 9 9 9 9 9 9 9 9 11 10 10 10 10 11 11 12 11 11 10 10 11 12 12 11 12 14 13 11 11 11 10 12 12 14 13 13 12 12 9 17 21 20 18 15 13 12 12 11 11 10 12
5 6 6 6 6 6 7 7 7 7 7 7 7 7 7 7 7 7 7 8 8 8 7 7 7 8 8 9 9 10 11 10 9 10 11 10 10 11 11 10 10 11 11 12 12 12 12 11 11 11 11 10 10 10 12 13 13 14 14 14 13 13 9 12 19 20 21 22 21 18 14 11 10 12
6 6 6 6 7 7 7 7 7 7 7 7 7 7 7 7 8 8 8 8 9 8 7 7 7 7 8 7 8 9 9 9 9 10 10 10 12 11 11 11 11 11 11 11 12 12 12 11 10 10 11 11 10 11 12 13 13 12 13 13 13 14 15 14 11 12 17 21 23 23 25 24 20 20
6 6 7 7 7 7 7 7 7 7 8 7 7 7 7 7 8 8 8 9 9 8 8 8 8 8 8 8 8 9 9 10 10 10 9 10 9 10 10 11 11 12 11 11 12 12 11 12 11 10 10 11 10 11 12 12 13 13 14 14 14 13 12 12 14 15 13 12 13 21 24 23 23 24
Wind_Direction
280 277 273 288 299 301 310 293 312 348 317 308 313 302 324 336 323 332 328 334 334 344 356 341 32 6 352 343 348 344 334 24 326 348 333 331 310 1 321 309 302 297 293 293 292 291 291 289 286 282 282 285 282 280 278 271 262 252 224 225 233 232 230 231 252 263 276 282 285 306 329 344 355 349
268 273 275 274 282 293 275 264 289 306 315 299 293 307 309 277 308 320 309 314 309 320 330 328 339 346 335 330 332 335 324 83 301 339 328 329 341 350 307 298 298 299 297 296 295 295 293 290 289 289 287 287 286 280 278 278 268 254 233 229 231 225 221 217 232 251 261 267 269 280 316 338 356 349
270 268 275 276 285 299 307 304 282 305 302 305 295 302 303 287 288 302 300 299 308 324 313 319 326 323 325 327 326 324 322 342 316 314 321 314 342 299 283 275 288 293 298 300 300 300 297 294 292 290 288 286 288 285 276 279 275 265 254 241 236 226 217 214 222 238 249 252 256 263 295 329 344 346
275 274 271 272 279 291 296 294 290 276 288 299 298 298 305 295 287 284 291 289 296 299 307 316 314 322 332 322 325 336 321 343 196 315 299 307 279 282 318 285 266 294 300 306 306 305 304 300 297 293 290 289 288 286 276 286 284 275 257 253 247 236 223 218 216 229 235 242 240 243 267 305 327 336
262 270 278 282 283 283 286 289 292 282 270 271 268 274 272 278 274 276 292 296 301 301 297 297 304 319 321 321 325 323 330 327 334 316 310 309 311 313 317 319 307 284 303 309 308 305 303 302 300 297 294 291 290 289 288 290 288 287 285 271 259 248 233 223 220 222 227 232 232 228 241 267 292 320
265 272 278 280 283 270 276 287 286 284 287 277 277 276 277 282 283 264 280 296 298 300 301 298 314 307 303 306 316 324 319 323 320 316 314 309 313 316 314 316 316 275 296 304 301 298 298 301 301 299 297 293 292 292 293 292 292 292 292 284 267 258 246 234 224 215 219 226 228 223 224 233 257 293
268 270 271 275 273 262 269 272 280 288 287 288 288 289 292 292 289 282 262 278 291 300 302 305 302 309 312 306 312 309 307 303 297 297 307 316 318 317 314 311 318 311 287 295 294 293 294 297 299 301 299 296 293 293 293 294 294 294 293 287 271 260 256 245 234 222 219 218 226 224 216 223 238 261
267 272 275 278 283 285 280 281 285 284 283 284 275 276 274 272 280 281 265 250 278 293 297 301 299 306 306 301 298 298 299 301 306 305 310 304 305 314 318 311 308 324 290 282 282 285 289 291 296 300 301 298 293 290 290 290 292 291 290 287 275 260 255 252 243 234 227 219 219 224 218 220 233 242
263 267 271 282 283 280 283 284 284 290 290 287 281 280 280 275 279 274 262 267 266 275 284 295 290 283 279 283 286 292 305 309 302 297 294 303 302 301 311 310 310 278 245 251 256 263 271 279 285 296 302 301 294 289 287 288 289 290 289 288 280 267 254 250 246 239 232 224 219 221 220 216 224 233
254 263 267 272 273 276 276 285 291 293 292 287 286 288 289 289 288 275 271 266 267 268 275 282 294 284 293 297 293 292 288 304 309 308 304 295 284 282 304 318 319 324 328 333 316 265 251 266 281 285 293 295 292 288 287 287 287 287 289 288 284 272 259 249 245 240 234 228 222 221 219 211 217 221
255 257 261 264 264 265 265 273 280 283 281 281 286 282 284 286 279 280 278 275 275 278 281 283 280 288 287 282 295 294 278 282 272 288 309 312 315 295 296 307 315 320 319 300 247 255 286 290 287 298 284 278 274 275 277 281 279 283 284 286 284 274 259 246 242 241 234 229 225 223 222 219 217 223
258 257 258 264 263 259 261 262 269 273 278 284 286 286 282 283 279 284 288 286 286 287 288 290 299 296 293 286 278 276 264 281 273 253 287 301 307 313 309 301 306 310 305 309 328 268 251 258 241 247 250 246 254 262 262 256 259 267 277 282 282 276 259 244 238 236 234 231 227 225 224 224 224 227
256 258 260 259 262 256 249 253 261 271 278 283 287 284 282 279 282 285 289 287 288 287 289 293 290 289 291 290 291 302 296 299 307 306 291 287 285 291 298 302 299 303 308 304 309 318 322 315 316 319 316 302 271 268 235 257 245 252 266 281 285 280 261 243 236 231 230 230 228 226 225 225 226 224
265 264 267 271 258 246 246 249 248 245 248 244 255 273 281 284 287 290 291 290 289 291 293 292 296 297 298 302 309 306 304 300 288 292 286 292 304 306 301 295 290 305 316 317 310 306 311 314 310 307 306 311 298 312 307 338 330 313 300 293 291 287 276 253 237 231 228 227 226 226 226 226 227 229
270 273 273 276 260 239 234 235 234 244 244 243 243 248 253 260 270 282 287 286 289 289 288 291 288 291 295 297 305 303 304 305 305 301 296 290 296 303 312 312 309 246 316 312 307 301 307 302 301 303 301 300 306 308 310 329 308 298 290 285 284 284 282 268 244 232 228 225 224 225 225 226 228 230
269 273 275 274 275 269 270 282 273 238 231 235 242 243 245 247 248 249 256 270 279 281 287 288 288 290 289 292 295 300 304 306 306 300 294 284 283 291 290 290 290 303 295 297 297 294 297 294 290 290 287 292 295 305 298 285 284 288 289 285 281 280 280 273 256 238 227 222 223 224 224 226 229 230
269 273 276 278 278 283 274 258 265 274 275 245 232 240 246 247 242 242 239 239 249 271 274 277 279 275 282 285 286 289 295 300 292 293 288 289 284 278 278 276 287 287 286 283 278 282 289 290 281 279 279 284 291 294 275 250 264 282 288 286 282 277 275 272 261 243 228 221 219 221 222 224 227 230
271 273 276 277 276 280 279 272 272 278 279 286 282 272 265 267 246 225 224 230 234 238 255 266 272 275 274 275 280 284 281 282 282 286 285 288 284 280 274 283 280 277 269 268 285 282 278 272 279 278 279 280 279 275 273 263 271 273 276 281 285 279 272 269 261 245 229 219 215 215 218 220 222 228
265 270 271 274 279 285 284 286 296 289 282 281 278 277 279 274 276 276 265 250 239 220 228 242 252 263 266 268 273 277 275 269 273 278 284 286 285 284 283 275 264 265 249 249 257 274 283 277 274 274 281 285 284 285 282 244 245 259 271 281 282 271 266 263 258 249 233 221 215 212 214 213 216 220
232 248 263 271 276 286 285 358 29 328 302 285 278 276 276 276 273 269 256 239 248 263 275 272 272 275 284 293 289 291 293 291 283 287 280 275 269 271 271 270 278 278 280 222 240 272 281 276 275 283 289 289 284 285 284 267 223 245 259 265 260 251 247 244 243 241 233 223 218 215 211 210 211 212
151 121 57 276 286 282 328 57 29 22 269 274 275 277 279 281 284 281 283 207 216 233 240 251 263 271 274 276 278 279 277 266 285 288 281 270 271 273 279 283 288 288 295 276 245 270 285 287 279 280 284 283 283 284 281 279 232 207 227 238 247 246 236 232 233 231 227 220 217 213 208 206 204 205
343 88 71 348 342 348 52 38 47 344 269 270 275 280 281 283 281 283 288 295 247 208 223 237 248 255 263 266 267 268 268 262 223 243 254 271 286 284 283 286 290 292 291 285 276 270 271 293 286 291 294 288 268 268 271 268 273 207 216 219 226 231 231 231 230 227 219 215 213 207 202 195 186 193
293 241 110 66 43 43 45 22 8 355 323 292 285 283 285 281 282 290 306 301 303 311 309 291 270 265 244 245 246 247 238 241 214 223 242 270 272 278 282 285 290 290 283 294 238 241 281 293 291 297 300 297 295 292 288 281 280 283 285 262 226 206 217 222 223 214 211 209 203 200 192 185 182 219
304 334 78 105 80 59 28 8 357 337 333 311 295 284 286 292 290 307 308 301 299 298 291 287 284 281 286 283 279 275 264 239 212 214 233 249 259 270 276 277 279 284 289 303 218 276 290 293 290 292 290 294 296 301 299 295 292 289 286 271 275 216 201 210 220 214 211 202 203 198 190 182 188 217
355 2 6 43 68 14 357 345 340 331 322 309 301 290 281 311 349 342 296 299 292 292 294 290 285 284 281 281 277 275 271 272 275 264 252 253 258 266 275 279 282 282 283 295 182 281 291 295 292 293 285 281 282 290 295 297 294 290 283 273 268 269 270 255 271 239 183 198 200 195 193 190 196 215
5 359 4 2 15 355 340 330 327 323 318 308 288 299 328 331 332 315 302 295 295 291 291 291 293 294 292 291 292 290 289 287 284 282 281 277 277 274 276 279 283 286 282 300 146 276 290 289 288 291 287 286 283 282 290 291 293 293 289 284 279 274 256 267 256 257 249 229 198 187 194 194 200 211
352 4 358 360 351 338 331 326 323 320 318 279 285 296 299 304 303 281 290 297 293 291 291 294 292 293 290 289 292 295 298 299 298 296 294 290 286 282 277 275 274 277 285 290 286 284 280 282 284 283 285 284 285 286 282 284 288 295 293 285 288 281 269 266 258 264 266 252 262 164 179 184 203 210
11 12 10 345 327 326 326 327 326 319 327 339 321 309 305 300 263 292 301 293 296 297 293 289 290 291 295 294 292 298 306 305 310 303 298 291 287 286 287 285 282 280 283 283 282 278 275 277 280 271 270 279 282 283 285 285 283 286 289 291 288 290 292 283 278 272 255 246 252 209 212 201 195 196
7 334 323 340 348 351 357 353 358 20 22 4 357 344 326 298 310 328 322 315 313 305 303 300 298 296 298 301 299 303 303 303 299 293 293 298 300 295 290 287 285 280 273 273 275 276 275 277 281 284 278 274 274 275 279 281 284 286 289 295 291 292 293 291 287 275 256 249 243 234 231 236 205 182
360 14 10 17 5 17 15 12 20 19 14 6 7 13 9 3 4 2 348 337 322 320 321 325 321 323 322 318 324 317 308 307 309 314 310 308 304 306 303 300 295 294 290 287 287 285 282 277 277 277 280 277 271 276 278 284 283 284 286 284 290 292 279 279 276 275 264 254 249 244 245 234 233 217
14 17 14 5 356 5 359 12 8 16 3 5 8 11 8 360 9 3 5 5 2 359 351 340 337 335 331 322 310 309 314 313 311 309 306 303 302 302 299 296 296 295 293 296 297 299 297 292 287 285 284 283 281 275 277 276 278 280 281 281 285 287 296 294 285 279 278 262 258 253 247 234 228 213
8 8 4 12 17 13 11 14 9 14 10 10 6 9 2 352 7 3 359 5 2 359 347 340 341 337 334 330 329 331 326 323 319 319 314 313 309 305 303 295 292 298 297 295 290 289 282 278 284 282 277 278 281 284 285 281 280 284 286 283 277 278 276 277 280 280 276 276 273 263 239 231 238 227
21 18 23 18 18 18 16 13 9 5 2 6 0 3 2 351 9 2 5 3 357 348 341 344 339 332 331 328 339 341 335 330 324 327 320 310 307 308 300 292 295 297 300 300 299 291 284 283 277 281 285 284 279 279 281 284 282 282 281 283 285 281 284 279 282 284 286 278 272 275 262 234 226 225
32 33 31 29 21 15 15 10 8 3 359 358 356 358 358 357 6 358 358 3 350 340 337 336 333 333 332 335 338 333 332 336 339 344 346 335 333 322 312 298 289 289 291 298 301 301 299 293 285 277 279 280 277 272 271 274 282 289 285 288 280 283 281 284 283 284 281 278 283 284 279 264 241 221
37 30 30 27 24 17 17 14 7 359 356 357 351 352 352 356 359 358 357 355 341 338 340 336 332 333 337 332 337 345 350 343 333 331 332 332 333 331 329 324 323 318 310 307 308 308 302 299 297 298 290 281 282 273 240 244 272 275 288 283 294 289 289 287 288 287 286 286 281 281 285 282 270 240
42 36 31 26 20 12 12 11 2 359 356 354 352 349 348 349 354 350 351 344 335 339 338 338 332 336 334 336 347 342 335 331 323 324 324 328 329 325 325 325 327 325 324 318 317 316 313 307 303 301 301 301 297 295 292 208 216 261 282 294 292 294 293 292 288 288 285 283 279 280 281 282 287 282
42 35 30 24 20 10 7 2 359 355 354 351 349 348 344 340 343 343 341 336 337 337 338 330 334 335 330 338 337 333 331 329 329 328 326 327 325 326 323 321 320 317 315 313 315 313 309 304 304 305 300 296 292 293 289 313 227 226 263 279 289 292 298 298 296 290 284 279 279 275 275 281 282 286
27 21 17 13 11 4 1 357 353 349 349 346 343 340 338 336 335 337 337 337 341 337 336 335 333 331 332 336 334 333 333 334 331 328 329 329 330 330 327 320 318 318 315 309 307 305 304 301 301 296 283 283 293 289 299 298 301 262 213 234 268 281 282 285 284 288 288 286 282 282 281 279 279 280
10 8 3 360 357 355 352 352 346 344 342 341 340 339 336 334 334 333 334 336 337 336 333 331 332 333 328 330 332 331 330 331 331 331 329 328 326 323 320 319 317 316 313 307 306 306 307 305 306 314 326 327 315 312 311 307 296 300 249 204 245 272 272 275 281 283 288 289 284 285 278 274 276 262
352 351 351 349 348 345 343 342 341 341 336 337 334 334 332 330 330 328 329 332 332 333 331 330 331 330 326 328 325 324 323 324 325 323 325 323 321 317 313 316 311 308 307 305 306 307 305 303 309 330 329 307 301 299 298 288 285 279 277 243 210 228 256 268 265 271 279 278 287 289 287 284 285 282
342 340 346 343 340 339 336 335 335 335 333 331 326 327 326 325 320 324 329 324 327 328 329 328 328 329 324 324 323 323 320 321 324 323 321 319 316 314 310 306 300 304 305 303 302 302 304 314 316 308 295 293 293 296 287 287 288 291 286 285 233 216 230 234 254 270 271 275 281 282 283 285 286 283
336 335 334 333 334 331 329 330 330 330 327 326 324 322 322 318 319 316 311 312 319 323 324 326 326 322 322 323 321 319 316 317 316 314 315 314 314 312 309 308 305 306 304 301 302 301 304 304 304 304 305 305 304 298 294 293 295 296 298 297 297 243 218 234 237 238 252 270 275 272 272 277 272 272
331 327 324 327 324 324 324 325 324 324 323 322 319 318 314 314 317 316 317 317 318 322 316 314 318 319 319 317 316 313 312 309 307 308 310 308 309 312 311 307 304 301 299 297 296 299 302 306 308 308 308 306 299 295 289 292 293 294 295 296 295 304 293 225 226 237 242 240 242 248 262 270 277 273
326 323 321 323 320 320 320 321 320 320 318 316 314 311 310 312 311 311 312 315 320 318 314 313 312 311 310 310 312 310 309 306 307 305 302 305 310 307 305 305 303 299 299 299 303 303 307 305 306 308 304 300 302 298 295 296 293 294 296 293 296 297 292 299 288 239 234 239 242 243 245 250 252 259
323 320 320 319 317 316 315 315 315 315 315 313 309 310 309 306 306 306 308 312 316 314 309 311 312 312 311 311 311 308 307 304 298 294 295 295 298 301 301 303 303 303 301 303 302 302 304 305 304 303 295 295 295 293 292 291 293 298 295 294 294 292 294 299 300 297 290 288 242 227 237 239 246 250